This is the latest recevied weather packets stored in our database for station/object KE8KMM. If no packets are shown the sender has not sent any weather packets the latest 10 day(s).
| Time | Temp. | Humidity | Pressure | Rain* | Wind** | Luminosity | Snow |
|---|---|---|---|---|---|---|---|
| 1777994396 | 20.56° C | 67% | 1006.9 hPa | 0 mm | - | 347 W/m² | - |
| 1777994091 | 20° C | 68% | 1006.8 hPa | 0 mm | - | 252 W/m² | - |
| 1777993789 | 20° C | 69% | 1007.1 hPa | 0 mm | - | 279 W/m² | - |
| 1777993486 | 20.56° C | 69% | 1007.2 hPa | 0 mm | - | 297 W/m² | - |
| 1777993185 | 20° C | 70% | 1007.1 hPa | 0 mm | - | 383 W/m² | - |
| 1777992883 | 19.44° C | 70% | 1007.1 hPa | 0 mm | - | 240 W/m² | - |
| 1777992582 | 19.44° C | 69% | 1007.3 hPa | 0 mm | - | 232 W/m² | - |
| 1777992279 | 19.44° C | 70% | 1006.8 hPa | 0 mm | - | 249 W/m² | - |
| 1777991976 | 20° C | 69% | 1006.9 hPa | 0 mm | - | 269 W/m² | - |
| 1777991674 | 20° C | 69% | 1006.9 hPa | 0 mm | - | 333 W/m² | - |
| 1777991371 | 20° C | 68% | 1006.8 hPa | 0 mm | - | 642 W/m² | - |
| 1777991068 | 20° C | 71% | 1006.8 hPa | 0 mm | - | 681 W/m² | - |
| 1777990765 | 19.44° C | 70% | 1006.9 hPa | 0 mm | - | 331 W/m² | - |
| 1777990462 | 19.44° C | 73% | 1006.8 hPa | 0 mm | - | 541 W/m² | - |
| 1777989856 | 18.33° C | 74% | 1007.3 hPa | 0 mm | - | 410 W/m² | - |
| 1777989553 | 17.78° C | 76% | 1006.9 hPa | 0 mm | - | 554 W/m² | - |
| 1777989249 | 17.78° C | 76% | 1006.8 hPa | 0 mm | - | 188 W/m² | - |
| 1777988945 | 17.22° C | 76% | 1007.1 hPa | 0 mm | - | 196 W/m² | - |
| 1777988642 | 17.22° C | 76% | 1006.8 hPa | 0 mm | - | 184 W/m² | - |
| 1777988339 | 16.67° C | 76% | 1006.7 hPa | 0 mm | - | 196 W/m² | - |
| 1777988036 | 16.67° C | 79% | 1006.8 hPa | 0 mm | - | 188 W/m² | - |
| 1777987731 | 16.67° C | 79% | 1006.7 hPa | 0 mm | - | 115 W/m² | - |
| 1777987429 | 16.67° C | 78% | 1006.7 hPa | 0 mm | - | 80 W/m² | - |
| 1777987126 | 16.67° C | 78% | 1006.7 hPa | 0 mm | - | 88 W/m² | - |
| 1777986823 | 16.67° C | 77% | 1006.6 hPa | 0 mm | - | 58 W/m² | - |
* Rain latest hour (hover to see other rain measurements)
** Current wind speed in m/s (hover to see current wind gust speed)